Location: Betz
(49.1556°N, 2.9558°E)
Time: 01:02:18
(UTC+00:00)

CZ-2D R/B - Pass Details

Date: 18 September 2019
Orbit: 523 x 538 km, 97.4° (Epoch: 21 October)

Event Time Altitude Azimuth Distance (km) Brightness Sun altitude
Rises 18:49:00 0° 176° (S) 2,643 6.6 -9.5°
Reaches altitude 10° 18:51:08 10° 181° (S) 1,759 5.8 -9.8°
Maximum altitude 18:54:51 55° 260° (W) 635 4.0 -10.4°
Drops below altitude 10° 18:58:37 10° 339° (NNW) 1,774 6.4 -11.0°
Sets 19:00:47 0° 344° (NNW) 2,669 7.3 -11.3°
